CZ-2C DEB, 40291

Orbit data source: Space-Track

CZ-2C DEB, 40291 is space debris in SSO originally from a launch on Mon, 27 Oct 2014 UTC launched from the Jiuquan Satellite Launch Center, China (JSC). Debris objects in space refer to the collection of defunct objects orbiting the Earth. Examples of debris include non-operational satellites, rocket bodies, and fragments generated from explosions, collisions, or faulty payload assembly.

Loading next visibility...
Identifier
40291, 2014-066F
Orbit
SSO
Country
Flag of CNCN / PRC
Related business
Manufacturer
CALT
Mission
Spacecraft
Bus & Motor
Unknown
Mass
1 kg wet, 1 kg dry
Launch date (UTC)
2014-10-27 (11 years ago)
Launch vehicle
Unknown
Launch site
Jiuquan Satellite Launch Center, China (JSC)
Object type
Payload
Rocket body
Debris
Shape & HBR
Cone, 0.1 m
Radar Cross Section
0.025 m², Small (<0.1 m²)

Expand to show TLE details & history
Last TLE update: 13 hours ago

TLE from 13 hours ago
0 CZ-2C DEB
1 40291U 14066F   25306.44121939  .00002684  00000-0  84397-3 0  9996
2 40291  98.2599 298.2443 0154844 235.2382 123.4145 14.34607382573185
Epoch: 2025-11-02T10:35Z
TLE epoch observation values (Epoch: 2025-11-02T10:35:21.355Z)
Latitude
-0.00003°
Longitude
97.44842°
Altitude
841.52 km
Speed
7.4 km/s
True Right ascension
19h 52m 58s
True Declination
0° 00' 00"
Sunlit
Object was in daylight at epoch
Visualization orbit readout
Latitude
Unknown
Longitude
Unknown
Altitude
Unknown
Speed
Unknown
Apparent Right ascension
Unknown
Apparent Declination
Unknown
Sunlit
N/A
Visualization observer readout
Local Sidereal Time
18:59:28
Azimuth
Unknown
Elevation
Unknown
Doppler factor
Unknown
Orbital elements
Apogee altitude
884.227 km
Perigee altitude
662.75 km
Semi-major axis
7,151.625 km
Eccentricity
0.01548
Inclination
98.2599°
RAAN
298.2443°
Arg. of periapsis
235.2382°
True anomaly
124.87981°
Mean anomaly
123.4145°
Eccentric anomaly
124.14872°
Mean motion
3.58869 °/min
Orbital period
100.32 mins
BSTAR
0.00084397
Loading maneuver chart data...
Computing Atmospheric mass density...
Loading historical data...
Loading historical data...
Loading historical data...
Loading historical data...
Loading historical data...
Loading historical data...
Loading historical data...
Other satellites on launch #66 in the year 2014 (2014-10-27 UTC)

Documentation

Showing up to 5 results
|